Orbital Elements at Epoch 2459200.5 (2020-Dec-17.0) TDB
Reference: JPL 21 (heliocentric ecliptic J2000)
Element | Value | Uncertainty (1-sigma) | Units |
e | .08992514584452338 | 4.9708e-08 | |
a | 2.380006439748644 | 1.1681e-08 | au |
q | 2.165984013543343 | 1.2151e-07 | au |
i | 6.474032432906915 | 5.5408e-06 | deg |
node | 154.4187793899668 | 3.5459e-05 | deg |
peri | 349.0028559703522 | 4.4175e-05 | deg |
M | 86.67909740649368 | 2.4811e-05 | deg |
tp | 2458877.592966616858 (2020-Jan-29.09296662) | 9.2832e-05 | TDB |
period | 1341.113780555154 3.67 | 9.8732e-06 2.703e-08 | d yr |
n | .2684335999075171 | 1.9762e-09 | deg/d |
Q | 2.594028865953946 | 1.2731e-08 | au |
|
| | Orbit Determination Parameters
Additional Information
|